W1LH-13 Weather Reports


time (UTC)temp
C
wind
direction
speed
KPH
gust
KPH
rain 1hr
cm
rain 24hr
cm
rain mn
cm
humidity
%
barometer
mb
20260505083834 6 215 0.0 4.8 0.00 0.00 0.00 91 1007.9
20260505083340 6 215 0.0 4.8 0.00 0.00 0.00 91 1007.8
20260505082822 6 195 1.6 3.2 0.00 0.00 0.00 91 1007.9
20260505082331 6 195 0.0 4.8 0.00 0.00 0.00 91 1007.9
20260505081836 6 195 3.2 4.8 0.00 0.00 0.00 91 1008.0
20260505081341 6 192 1.6 3.2 0.00 0.00 0.00 91 1008.1
20260505080824 6 182 1.6 4.8 0.00 0.00 0.00 91 1008.1
20260505080327 6 126 1.6 4.8 0.00 0.00 0.00 91 1008.1
20260505075852 6 188 0.0 4.8 0.00 0.00 0.00 91 1008.1
20260505075336 6 188 1.6 4.8 0.00 0.00 0.00 91 1008.1
20260505074820 6 175 1.6 4.8 0.00 0.00 0.00 91 1008.2
20260505074325 6 213 1.6 4.8 0.00 0.00 0.00 91 1008.2
20260505073831 6 125 1.6 4.8 0.00 0.00 0.00 91 1008.2
20260505073334 6 215 1.6 4.8 0.00 0.00 0.00 91 1008.2
20260505072900 6 215 0.0 3.2 0.00 0.00 0.00 91 1008.2
20260505072324 6 138 0.0 3.2 0.00 0.00 0.00 91 1008.1
20260505071833 6 138 1.6 3.2 0.00 0.00 0.00 91 1008.2
20260505071359 6 138 1.6 4.8 0.00 0.00 0.00 91 1008.1
20260505070823 6 138 3.2 4.8 0.00 0.00 0.00 91 1008.1
20260505070327 6 107 3.2 6.4 0.00 0.00 0.00 91 1008.1
20260505065853 6 111 1.6 4.8 0.00 0.00 0.00 91 1008.1
20260505065335 6 132 1.6 3.2 0.00 0.00 0.00 91 1008.0
20260505064840 6 188 1.6 3.2 0.00 0.00 0.00 91 1008.0
20260505064323 6 188 1.6 3.2 0.00 0.00 0.00 91 1008.0
20260505063828 6 188 0.0 1.6 0.00 0.00 0.00 91 1007.9
20260505063332 7 188 0.0 1.6 0.00 0.00 0.00 91 1007.9
20260505062837 7 128 0.0 4.8 0.00 0.00 0.00 91 1007.9
20260505062321 7 216 0.0 4.8 0.00 0.00 0.00 91 1007.8
20260505061846 7 117 1.6 3.2 0.00 0.00 0.00 91 1007.8
20260505061334 7 314 1.6 3.2 0.00 0.00 0.00 91 1007.8
20260505060820 7 207 1.6 4.8 0.00 0.00 0.00 91 1007.7
20260505060324 7 207 1.6 4.8 0.00 0.00 0.00 91 1007.8
20260505055828 7 71 1.6 4.8 0.00 0.00 0.00 91 1008.0
20260505055353 7 168 1.6 3.2 0.00 0.00 0.00 91 1007.9
20260505054836 7 168 1.6 3.2 0.00 0.00 0.00 91 1008.0
20260505054321 7 168 0.0 4.8 0.00 0.00 0.00 92 1007.9
20260505053845 7 279 1.6 4.8 0.00 0.00 0.00 91 1007.8
20260505053348 7 223 1.6 6.4 0.00 0.00 0.00 92 1007.9
20260505052853 7 223 1.6 6.4 0.00 0.00 0.00 92 1007.9
20260505052335 7 61 526.3 526.3 0.00 0.00 0.00 92 1007.7
20260505051820 6 259 0.0 1.6 0.00 0.00 0.00 92 1007.7
20260505051323 6 259 0.0 4.8 0.00 0.00 0.00 91 1007.7
20260505050830 7 259 1.6 4.8 0.00 0.00 0.00 92 1007.7
20260505050337 6 259 0.0 4.8 0.00 0.00 0.00 91 1007.7
20260505041320 7 259 4.8 6.4 0.00 0.00 0.00 90 1008.1
20260505040828 7 259 4.8 6.4 0.00 0.00 0.00 90 1008.2
20260505040332 7 259 4.8 6.4 0.00 0.00 0.00 90 1008.0
20260505035838 7 259 3.2 6.4 0.00 0.00 0.00 90 1007.8
20260505035322 7 259 3.2 6.4 0.00 0.00 0.00 90 1008.0
20260505034825 7 259 3.2 4.8 0.00 0.00 0.00 90 1007.9
20260505034330 7 259 3.2 4.8 0.00 0.00 0.00 90 1008.0
20260505033834 7 259 1.6 4.8 0.00 0.00 0.00 90 1008.0
20260505033359 7 259 1.6 4.8 0.00 0.00 0.00 89 1008.0
20260505032822 7 259 4.8 4.8 0.00 0.00 0.00 89 1007.8
20260505032327 7 259 3.2 4.8 0.00 0.00 0.00 89 1007.8
20260505031831 7 259 3.2 4.8 0.00 0.00 0.00 89 1007.8
20260505031336 7 259 3.2 4.8 0.00 0.00 0.00 88 1007.7
20260505030822 7 259 3.2 4.8 0.00 0.00 0.00 88 1007.8
20260505030328 7 259 3.2 4.8 0.00 0.00 0.00 88 1007.8
20260505025853 7 259 0.0 3.2 0.00 0.03 0.00 88 1007.7
20260505025337 8 259 0.0 4.8 0.00 0.03 0.00 89 1007.6
20260505024821 8 259 3.2 6.4 0.00 0.03 0.00 88 1007.8
20260505024325 8 253 4.8 6.4 0.00 0.03 0.00 89 1007.7
20260505023831 8 278 4.8 8.0 0.00 0.03 0.00 89 1007.7
20260505023335 8 290 4.8 8.0 0.00 0.03 0.00 89 1007.6
20260505022900 7 263 4.8 8.0 0.00 0.03 0.00 89 1007.8
20260505022323 7 292 6.4 8.0 0.00 0.03 0.00 90 1007.7
20260505021848 7 286 4.8 6.4 0.00 0.03 0.00 88 1007.7
20260505021331 7 286 1.6 3.2 0.00 0.03 0.00 88 1007.4
20260505020835 7 286 1.6 4.8 0.00 0.03 0.00 88 1007.3
20260505020343 7 286 3.2 4.8 0.00 0.03 0.00 88 1007.3
20260505015827 7 286 4.8 4.8 0.00 0.05 0.00 88 1007.3
20260505015351 7 286 4.8 6.4 0.00 0.05 0.00 87 1007.3
20260505014855 7 286 4.8 6.4 0.00 0.05 0.00 87 1007.3
20260505014339 7 270 3.2 4.8 0.00 0.05 0.00 87 1007.2
20260505013824 7 270 4.8 4.8 0.00 0.05 0.00 86 1007.2
20260505013329 7 270 3.2 4.8 0.00 0.05 0.00 86 1007.1
20260505012834 7 270 3.2 4.8 0.00 0.05 0.00 86 1007.0
20260505012339 7 270 3.2 4.8 0.00 0.05 0.00 85 1007.0
20260505011823 8 270 3.2 4.8 0.00 0.05 0.00 84 1007.1
20260505011348 8 271 3.2 4.8 0.00 0.05 0.00 84 1007.1
20260505010852 8 310 3.2 4.8 0.00 0.05 0.00 83 1007.0
20260505010336 8 310 3.2 4.8 0.00 0.05 0.00 82 1006.9
20260505005820 8 310 3.2 3.2 0.00 0.08 0.00 81 1006.9
20260505005329 9 310 1.6 3.2 0.00 0.08 0.00 79 1006.8
20260505004835 9 310 1.6 3.2 0.00 0.08 0.00 78 1006.7
20260505004339 10 310 1.6 4.8 0.00 0.08 0.00 77 1006.6
20260505003823 10 310 1.6 4.8 0.00 0.08 0.00 77 1006.5
20260505003328 10 310 3.2 4.8 0.00 0.08 0.00 77 1006.5
20260505002834 11 310 3.2 4.8 0.00 0.08 0.00 76 1006.4
20260505002337 11 310 3.2 6.4 0.00 0.08 0.00 77 1006.2
20260505001821 11 310 3.2 8.0 0.00 0.08 0.00 77 1006.1
20260505001327 11 299 4.8 8.0 0.00 0.08 0.00 77 1005.9
20260505000852 11 299 4.8 8.0 0.00 0.08 0.00 76 1005.9
20260505000334 11 298 4.8 8.0 0.00 0.08 0.00 76 1005.8
20260504235824 11 288 4.8 8.0 0.00 0.10 0.00 75 1005.6
20260504235328 11 282 4.8 9.7 0.00 0.10 0.00 75 1005.6
20260504234833 12 287 4.8 9.7 0.00 0.10 0.00 74 1005.6
20260504234337 12 283 4.8 8.0 0.00 0.10 0.00 74 1005.5
20260504233820 12 292 4.8 11.3 0.00 0.10 0.00 73 1005.4
20260504233325 12 298 4.8 17.7 0.00 0.10 0.00 72 1005.3
20260504232829 12 286 8.0 17.7 0.00 0.10 0.00 72 1005.3
20260504232333 12 260 4.8 9.7 0.00 0.10 0.00 72 1005.2
20260504231839 12 302 6.4 14.5 0.00 0.10 0.00 71 1005.2
20260504231323 13 300 6.4 14.5 0.00 0.10 0.00 71 1005.1
20260504230848 13 292 8.0 17.7 0.00 0.10 0.00 70 1005.0
20260504230333 13 292 8.0 19.3 0.00 0.10 0.00 70 1004.9
20260504225821 13 275 11.3 19.3 0.00 0.13 0.00 69 1004.8
20260504225347 13 292 9.7 16.1 0.00 0.13 0.00 68 1004.6
20260504224831 13 286 8.0 17.7 0.00 0.13 0.00 68 1004.6
20260504224335 13 286 526.3 526.3 0.00 0.00 0.00 68 1004.7
20260504223841 13 303 14.5 22.5 0.00 0.13 0.00 67 1004.6
20260504223325 13 296 11.3 17.7 0.00 0.13 0.00 66 1004.5
20260504222830 14 298 9.7 16.1 0.00 0.13 0.00 66 1004.5
20260504222334 14 290 9.7 17.7 0.00 0.13 0.00 67 1004.4
20260504221838 14 303 11.3 17.7 0.00 0.13 0.00 67 1004.3
20260504221322 14 274 8.0 17.7 0.00 0.13 0.00 66 1004.2
20260504220826 14 310 11.3 19.3 0.00 0.13 0.00 66 1004.2
20260504220331 14 293 11.3 20.9 0.00 0.13 0.00 66 1004.1
20260504215820 14 281 12.9 24.1 0.00 0.18 0.00 65 1004.1
20260504215325 14 280 14.5 24.1 0.00 0.18 0.00 64 1003.9
20260504214851 14 281 12.9 22.5 0.00 0.18 0.00 64 1003.9
20260504214335 14 298 12.9 27.4 0.00 0.18 0.00 64 1003.8
20260504213838 15 260 16.1 27.4 0.00 0.18 0.00 64 1003.8
20260504213324 15 265 11.3 19.3 0.00 0.18 0.00 64 1003.8
20260504212849 15 281 11.3 19.3 0.00 0.18 0.00 63 1003.7
20260504212333 15 315 9.7 14.5 0.00 0.18 0.00 63 1003.6
20260504211836 15 271 9.7 16.1 0.00 0.18 0.00 63 1003.6
20260504211341 15 288 8.0 16.1 0.00 0.18 0.00 63 1003.5
20260504210823 15 292 11.3 14.5 0.00 0.18 0.00 63 1003.6
20260504210327 15 302 9.7 16.1 0.00 0.18 0.00 63 1003.6
20260504205835 14 290 4.8 12.9 0.00 0.23 0.00 64 1003.5
20260504205340 14 301 6.4 19.3 0.00 0.23 0.00 64 1003.5
20260504204843 14 254 11.3 25.7 0.00 0.23 0.00 63 1003.4
20260504204347 14 288 9.7 25.7 0.00 0.23 0.00 63 1003.5
20260504203827 14 253 8.0 17.7 0.00 0.23 0.00 64 1003.6
20260504203331 14 292 11.3 24.1 0.00 0.23 0.00 64 1003.5
20260504202836 14 282 12.9 24.1 0.00 0.23 0.00 64 1003.6
20260504202320 14 261 11.3 24.1 0.00 0.23 0.00 64 1003.6
20260504201824 14 304 12.9 25.7 0.00 0.23 0.00 64 1003.5
20260504201330 14 296 16.1 25.7 0.00 0.23 0.00 63 1003.5
20260504200834 14 271 16.1 25.7 0.00 0.23 0.00 64 1003.5
20260504200358 14 305 8.0 19.3 0.00 0.23 0.00 66 1003.6
20260504195822 14 271 9.7 19.3 0.00 0.30 0.00 66 1003.5
20260504195331 14 306 11.3 19.3 0.00 0.30 0.00 65 1003.4
20260504194835 14 276 9.7 22.5 0.00 0.30 0.00 66 1003.5
20260504194340 14 259 11.3 22.5 0.00 0.30 0.00 64 1003.4
20260504193823 15 284 4.8 17.7 0.00 0.30 0.00 66 1003.3
20260504193328 14 283 6.4 22.5 0.00 0.30 0.00 66 1003.4
20260504192833 13 271 11.3 24.1 0.00 0.30 0.00 68 1003.5
20260504192337 13 302 12.9 22.5 0.00 0.30 0.00 70 1003.6
20260504191821 13 281 14.5 25.7 0.00 0.30 0.00 70 1003.7
20260504191327 13 298 14.5 25.7 0.00 0.30 0.00 70 1003.7
20260504190832 13 300 16.1 25.7 0.00 0.30 0.00 72 1003.8
20260504190336 13 293 16.1 24.1 0.00 0.30 0.00 73 1003.8
20260504185824 12 269 14.5 25.7 0.00 0.46 0.00 74 1003.9
20260504185327 12 280 9.7 25.7 0.00 0.46 0.00 75 1003.9
20260504184852 12 259 11.3 19.3 0.00 0.46 0.00 75 1003.9
20260504184335 12 258 12.9 19.3 0.00 0.46 0.00 74 1003.9
20260504183820 12 262 9.7 24.1 0.00 0.46 0.00 73 1004.0
20260504183324 12 298 9.7 25.7 0.00 0.46 0.00 72 1004.0
20260504182830 12 259 16.1 25.7 0.00 0.46 0.00 70 1004.0
20260504182334 12 281 14.5 25.7 0.00 0.46 0.00 69 1003.9
20260504181838 13 307 16.1 29.0 0.00 0.46 0.00 66 1003.8
20260504181322 13 298 19.3 29.0 0.00 0.46 0.00 62 1003.6
20260504180827 13 263 11.3 27.4 0.00 0.46 0.00 58 1003.6
20260504180336 13 284 17.7 27.4 0.00 0.46 0.00 56 1003.3
20260504175820 14 289 11.3 32.2 0.00 0.76 0.00 56 1003.0
20260504175325 14 222 17.7 32.2 0.00 0.76 0.00 53 1002.9
20260504174829 15 301 14.5 29.0 0.00 0.76 0.00 51 1002.7
20260504174353 15 232 17.7 29.0 0.00 0.76 0.00 47 1002.6
20260504173838 15 236 8.0 27.4 0.00 0.76 0.00 47 1002.6
20260504173321 16 270 12.9 27.4 0.00 0.76 0.00 45 1002.5
20260504172846 16 257 12.9 27.4 0.00 0.76 0.00 44 1002.4
20260504172330 16 273 9.7 27.4 0.00 0.76 0.00 44 1002.4
20260504171834 17 283 11.3 29.0 0.00 0.76 0.00 40 1002.4
20260504171338 17 237 12.9 22.5 0.00 0.76 0.00 43 1002.5
20260504170823 16 275 8.0 22.5 0.00 0.76 0.00 44 1002.6
20260504170331 16 292 9.7 30.6 0.00 0.76 0.00 42 1002.6
20260504160326 16 286 9.7 27.4 0.00 0.91 0.00 49 1003.5
20260504150853 13 277 14.5 22.5 0.00 0.97 0.00 50 1004.3
20260504150336 13 226 9.7 24.1 0.00 0.97 0.00 51 1004.5
20260504141325 12 342 11.3 25.7 0.00 1.02 0.00 53 1005.0
20260504140834 12 230 12.9 24.1 0.00 1.02 0.00 54 1005.0
20260504140339 11 304 14.5 32.2 0.00 1.02 0.00 53 1005.0
20260504130338 10 269 16.1 25.7 0.00 1.14 0.00 59 1005.5
20260504110328 5 284 11.3 16.1 0.00 1.37 0.00 82 1004.8
20260504100324 2 259 9.7 16.1 0.00 1.45 0.00 88 1004.1